Content
SEND FEEDBACK

Daily
Averages
Monthly
Summary
Brazil

SÃO PAULO, SÃO PAULO


Home > South America > Brazil > São Paulo
Elevation: 2634 feet     Latitude: 23 37S     Longitude: 046 39W

WEATHER
 
SELECT A DAY
Number of Records: 158,390;   Date Range: 6/30/96 - 8/10/14
 
SHARE

PRINT THIS DATA

[ ← Previous Day ]
WEATHER ALMANAC - APRIL 7, 2013
[ Next Day → ]
[ °C ]   °F
Weather ElementAverageHighLow
Temperature70.9 °F75.2 °F (11:00 am)68 °F (2:00 am)
Dewpoint63.6 °F66.2 °F (2:00 pm)62 °F (3:00 am)
Humidity77.3 %88 % (7:44 am)62 % (3:00 pm)
Barometer28.86 in30.09 in (9:00 am) (7:00 pm)
Wind Speed6.2 mph12.7 mph (1:00 pm)
Weather ElementAverage
Visibility4.6 mi
Wind DirectionESE (116.6 °)

Weather ElementTotal
Precipitation---
Cooling Degree Days6.6 (Base 65)
Growing Degree Days21.6 (Base 50)
Averaged from 29 records on April 7, 2013
WEATHER CONDITIONS BREAKOUT
WIND DIRECTION BREAKOUT
WEATHER BY HOUR - APRIL 7, 2013
[ °C ]   °F
Local TimeTemperatureDewpointHumidityBarometerVisibilityWind DirectionWind SpeedGust SpeedPrecipitationEventsConditions
1:00 AM69.8 °F62.6 °F78 %30.06 in3.1 miENE (70°)4.6 mphHaze
2:00 AM68.0 °F62.6 °F83 %30.04 in3.7 miENE (60°)4.6 mphPartly Cloudy
3:00 AM68.0 °F62.0 °F77 %3.0 miNNE (30°)3.5 mphMist
3:00 AM68.0 °F62.6 °F83 %30.04 in3.1 miNNE (30°)3.5 mphMist
4:00 AM68.0 °F62.6 °F83 %30.04 in2.5 miNE (40°)2.3 mphMist
5:00 AM68.0 °F62.6 °F83 %30.01 in1.9 miEast (90°)4.6 mphMist
6:00 AM68.0 °F62.6 °F83 %30.04 in1.6 miEast (80°)4.6 mphMostly Cloudy
7:00 AM68.0 °F62.6 °F83 %30.06 in1.6 miVariable2.3 mphOvercast
7:44 AM68.0 °F64.4 °F88 %30.06 inNE (40°)4.6 mphScattered Clouds
8:00 AM69.8 °F64.4 °F83 %30.06 inNorth (10°)6.9 mphScattered Clouds
9:00 AM71.0 °F64.0 °F72 %4.0 miNE (40°)3.5 mphHaze
9:00 AM71.6 °F64.4 °F78 %30.09 in3.7 miNE (40°)3.5 mphScattered Clouds
10:00 AM73.4 °F64.4 °F73 %30.09 in3.7 miWest (260°)4.6 mphMostly Cloudy
11:00 AM75.2 °F64.4 °F69 %30.09 in5.0 miWest (280°)4.6 mphMostly Cloudy
12:00 PM75.2 °F62.6 °F65 %30.06 in5.0 miSW (230°)2.3 mphMostly Cloudy
1:00 PM73.4 °F64.4 °F73 %30.06 in5.0 miSouth (190°)12.7 mphRainRain
2:00 PM73.4 °F66.2 °F78 %6.2 miSouth (170°)8.1 mphMostly Cloudy
3:00 PM75.0 °F64.0 °F62 %7.0 miSSE (160°)6.9 mphHaze
3:00 PM75.2 °F64.4 °F69 %30.04 in6.2 miSSE (160°)6.9 mphScattered Clouds
4:00 PM75.2 °F64.4 °F69 %30.04 in6.2 miSSE (150°)8.1 mphMostly Cloudy
5:00 PM73.4 °F64.4 °F73 %30.04 in6.2 miSE (130°)9.2 mphMostly Cloudy
6:00 PM71.6 °F62.6 °F73 %30.04 in6.2 miSE (140°)11.5 mphMostly Cloudy
7:00 PM69.8 °F64.4 °F83 %30.06 in6.2 miSE (140°)10.4 mphMostly Cloudy
8:00 PM69.8 °F64.4 °F83 %30.06 in6.2 miSE (140°)9.2 mphMostly Cloudy
9:00 PM69.0 °F63.0 °F76 %5.0 miSSE (150°)9.2 mphMist
9:00 PM69.8 °F62.6 °F78 %30.09 in5.0 miSSE (150°)9.2 mphMostly Cloudy
10:00 PM69.8 °F62.6 °F78 %30.09 in6.2 miSE (140°)5.8 mphMostly Cloudy
11:00 PM69.8 °F64.4 °F83 %30.09 in5.0 miSE (130°)5.8 mphMostly Cloudy
11:20 PM69.8 °F64.4 °F83 %30.09 in5.6 miSE (130°)5.8 mphMostly Cloudy
Hourly data recorded from SBSP, located miles away from São Paulo, São Paulo







STORIES FROM OUR PARTNERS